Regional Weather Roundup
Issued by NWS

Home | Current Version | Previous Version | Graphics & Text | Print | Product List | Glossary On
Versions: 1 2 3 4 5 6 7 8 9 10 11 12 13 14 15 16 17 18 19 20 21 22 23 24 25 26 27 28 29 30 31 32 33 34 35 36 37 38 39 40 41 42 43 44 45 46 47 48 49 50
000
ASUS43 KDTX 230701
RWRMI
MICHIGAN HOURLY REGIONAL WEATHER ROUNDUP
NATIONAL WEATHER SERVICE DETROIT/PONTIAC MI
300 AM EDT WED JUL 23 2014

NOTE: "FAIR" INDICATES FEW OR NO CLOUDS BELOW 12,000 FEET WITH NO
SIGNIFICANT WEATHER AND/OR OBSTRUCTION TO VISIBILITY.

MIZ047>049-052>055-059>063-066>070-074>076-081>083-230800-
SOUTHEAST LOWER MICHIGAN

CITY           SKY/WX    TMP DP  RH WIND       PRES   REMARKS
ADRIAN         CLOUDY    77  69  76 NW7       29.92F
ALMA           CLOUDY    65  59  80 NW9       29.98F
ANN ARBOR      CLOUDY    77  68  73 NW7       29.89F
BAD AXE        CLOUDY    71  68  90 N8        29.92S
CARO           CLOUDY    73  70  90 NW9G16    29.91F
DETROIT CITY   CLOUDY    78  70  76 S7        29.89F
DETROIT        CLOUDY    76  68  76 S9        29.92F THUNDER
FLINT          CLOUDY    76  67  73 NW12      29.90F
GROSSE ILE     LGT RAIN  75  72  88 SW7       29.90S
HILLSDALE      CLOUDY    76  63  63 NW10G16   29.95F
HOWELL         CLOUDY    74  65  72 NW12G26   29.91F

CITY           SKY/WX    TMP DP  RH WIND       PRES   REMARKS
JACKSON        CLOUDY    75  62  64 NW9       29.92F
LAMBERTVILLE   LGT RAIN  73  70  88 SW7       29.94S
LANSING        CLOUDY    70  65  84 NW12      29.96F
LAPEER         FAIR      76  66  70 N7        29.88F
MASON          LGT RAIN  72  64  76 W8        29.93F
MONROE         CLOUDY    73  72  94 S5        29.90F FOG
MT. CLEMENS    CLOUDY    75  71  87 S9        29.87F
PONTIAC        CLOUDY    78  68  71 W12       29.87F
PORT HOPE        N/A     68  63  84 CALM      29.90S
PORT HURON     CLOUDY    77  68  73 CALM      29.87F
TRI CITIES     CLOUDY    69  61  75 NW17      29.95S
TROY           CLOUDY    79  67  66 SW6       29.89F
SAGINAW HB     CLOUDY    70  64  83 NW13G21   29.93S
$$
MIZ043>046-050>051-056>058-064>065-071>073-077>080-230800-
SOUTHWEST LOWER MICHIGAN

CITY           SKY/WX    TMP DP  RH WIND       PRES   REMARKS
BATTLE CREEK   LGT RAIN  70  63  78 NW5       29.99F
BENTON HARBOR  CLOUDY    69  67  93 CALM      29.98F
BIG RAPIDS     CLOUDY    63  55  76 N12G22    30.03S
COLDWATER      CLOUDY    73  64  71 W15       29.97S
FREMONT        PTSUNNY   62  58  87 N9        30.03S
HOLLAND        CLOUDY    71  68  90 VRB3      30.01R
GRAND RAPIDS   CLOUDY    71  66  84 NW7       29.99S
IONIA          CLOUDY    70  64  82 W6        29.97F
KALAMAZOO      LGT RAIN  70  65  84 VRB3      29.99S
LUDINGTON      CLEAR     61  57  87 N6        30.07R
MARSHALL       LGT RAIN  70  63  78 W6        29.96F
MOUNT PLEASANT CLOUDY    63  58  83 NW10G16   30.00S
MUSKEGON       CLOUDY    67  62  84 N14       30.03R
SOUTH HAVEN    CLOUDY    70  70 100 CALM      29.99S
$$
MIZ016>042-230800-
NORTHERN LOWER MICHIGAN

CITY           SKY/WX    TMP DP  RH WIND       PRES   REMARKS
ALPENA         CLOUDY    61  56  83 NW13G24   29.97R
BEAVER ISLAND  CLEAR     59  56  90 NW5       30.06R
BELLAIRE       CLOUDY    62  56  81 N5        30.04R
CADILLAC       CLOUDY    59  57  92 N8        30.04S
CHARLEVOIX     PTCLDY    61  58  88 N10G18    30.07S
FRANKFORT      PTCLDY    61  55  80 N5        30.07R
GAYLORD        CLOUDY    59  54  83 N9G16     30.03R
GRAYLING       CLOUDY    60  57  88 NW9G16    30.03F
HARBOR SPRINGS CLEAR     61  55  82 N3        30.04R
HOUGHTON LAKE  CLOUDY    60  57  89 N10G20    30.02S
MANISTEE       PTCLDY    63  54  72 N5        30.07S
OSCODA         CLOUDY    65  58  76 NW17G23   29.93S
PELLSTON       PTCLDY    60  55  83 N13       30.03S
ROGERS CITY    CLOUDY    59  57  91 NW14G24   30.00R
TRAVERSE CITY  PTCLDY    63  55  75 N8        30.05R
$$
MIZ007>008-015-230800-
EASTERN UPPER MICHIGAN

CITY           SKY/WX    TMP DP  RH WIND       PRES   REMARKS
KINROSS        CLEAR     55  54  94 NW12      30.01R
MACKINAC ISLAN CLEAR     57  55  93 N9G16     30.02R
NEWBERRY       CLEAR     53  51  94 NW10      30.06R
S. S. MARIE    CLEAR     55  53  93 NW9       30.00R
MUNISING         N/A     55  49  80 NW9       30.10R
$$
MIZ004>006-011>014-085-230800-
CENTRAL UPPER MICHIGAN

CITY           SKY/WX    TMP DP  RH WIND       PRES   REMARKS
MANISTIQUE     CLEAR     54  52  94 NW9       30.08R
ESCANABA       MOCLDY    57  52  82 NW3       30.10R
MENOMINEE      CLEAR     59  54  82 N3        30.11R
SAWYER-GWINN   CLOUDY    58  53  83 N15G22    30.12R
$$
MIZ001>003-009>011-084-230800-
WESTERN UPPER MICHIGAN

CITY           SKY/WX    TMP DP  RH WIND       PRES   REMARKS
IRON MOUNTAIN  CLEAR     55  52  89 NW5       30.12R
HOUGHTON       MOCLDY    57  53  86 N7        30.16R
COPPER HARBOR    N/A     54  50  86 NE9       30.14R
$$

ABBREVIATIONS USED IN REMARKS
   TC - TEMPERATURE IN CELSIUS
  WCI - WIND CHILL INDEX
   HX - HEAT INDEX
  VSB - VISIBILITY



USA.gov is the U.S. government's official web portal to all federal, state and local government web resources and services.